Location: Bay Shore Mobile Home Park
(38.5762°N, 75.0841°W)
Time: 08:27:35
(UTC+00:00)

Cosmos 2278 Rocket - Pass Details

Date: 15 November 2025
Orbit: 841 x 843 km, 71.0° (Epoch: 05 December)

Event Time Altitude Azimuth Distance (km) Brightness Sun altitude
Rises 23:22:28 0° 215° (SW) 3,383 6.0 -18.7°
Reaches altitude 10° 23:24:58 10° 220° (SW) 2,452 5.3 -19.2°
Maximum altitude 23:30:26 52° 296° (WNW) 1,041 2.9 -20.2°
Drops below altitude 10° 23:35:57 10° 13° (NNE) 2,466 4.4 -21.3°
Enters shadow 23:36:32 - 14° (NNE) 2,681 4.6 -21.4°
